Weather in Dikson

Russia / Krasnoyarsk Krai     73°30′26″N   80°31′44″E
temp.,
°C
wind,
m/s
gust,
m/s
humid.,
%
clouds,
%
prec.,
mm/h
press.,
hPa
HPBL,
m
8 march, mon
mon801:00−26ene5894100 0.1 1009487
04:00−27ene469799 0.1 1010162
07:00−27e469499 0.1 1010354
10:00−27ene4796100 0.1 1009265
13:00−26ene3493100 0.1 1008336
16:00−26ne349599 0.1 1008332
19:00−28nne3410098 0.1 100743
22:00−30nne33100100 0.0 100530
9 march, tue
tue901:00−32nne2210099 0.0 100320
04:00−32nne1210094 0.0 100120
07:00−29wsw009996 0.1 99920
10:00−26sw1296100 0.1 998185
13:00−25n2390100 0.2 997544
16:00−25n3489100 0.1 999640
19:00−26n3394100 0.1 99939
22:00−26n3396100 0.1 100037
10 march, wed
wed1001:00−29n3310099 0.1 100121
04:00−31n22100100 0.0 100219
07:00−32wnw22100100 0.0 100219
10:00−32wsw34100100 0.0 100226
13:00−30wsw57100100 0.1 1001189
16:00−28sw710100100 0.0 1000341
19:00−26wsw91397100 0.1 998460
22:00−23wsw111597100 0.4 996664
11 march, thu
thu1101:00−20wsw111697100 1.1 993659
04:00−17wnw7995100 1.0 992592
07:00−17nw71095100 1.9 991694
10:00−17wnw71191100 0.4 991502
13:00−13wnw91493100 0.8 990704
16:00−13wnw111692100 0.4 990755
19:00−15w111683100 0.8 990473
22:00−17wsw111687100 0.0 989482
12 march, fri
fri1201:00−19sw111694100 0.0 988483
04:00−21sw121796100 0.1 987547
07:00−21sw121798100 0.6 985643
10:00−20sw101397100 1.6 983737
13:00−19sw7994100 2.5 983618
16:00−18sw4697100 0.1 984145
19:00−20ssw3399100 0.2 98545
22:00−21s1299100 0.1 98528